Zurück zum Katalog

FENGYUN 1C DEB

LostSSO
NORAD 37419·DEBRIS·🇨🇳 China

Gestartet May 10, 1999 von Taiyuan Satellite Launch Center

Loading…

Nächste Überflüge (nächste 24 Stunden)

TLE

VeraltetSource: Space-Track

Epoche: Jul 8, 2026, 08:15 UTC

1 37419U 99025EGM 26189.34379721  .00002381  00000-0  90817-3 0  9993
2 37419  98.5667 219.9813 0368011 320.2645  37.2083 14.00445751332542

Verfolge FENGYUN 1C DEB in Echtzeit mit AllMySat

Download on the App Store